Weather History for Worland, WY

Change the Weather History Date:

Saturday, October 20, 2012

  Actual Average Record
Temperature  
Mean Temperature 55 °F 44 °F  
Max Temperature 78 °F 59 °F 80 °F (2003)
Min Temperature 32 °F 29 °F 19 °F (1982)
Degree Days  
Heating Degree Days 10 21  
Month to date heating degree days 358 347  
Since 1 July heating degree days 446 604  
Cooling Degree Days 0 0  
Month to date cooling degree days 0 0  
Year to date cooling degree days 901 535  
Growing Degree Days 4 (Base 50)    
Moisture  
Dew Point 25 °F    
Average Humidity 38    
Maximum Humidity 61    
Minimum Humidity 15    
Precipitation  
Precipitation 0.00 in 0.02 in 0.43 in (2007)
Month to date precipitation 0.11 0.53  
Year to date precipitation 1.90 6.83  
Sea Level Pressure  
Sea Level Pressure 29.61 in    
Wind  
Wind Speed 10 mph (SW)    
Max Wind Speed 32 mph    
Max Gust Speed 44 mph    
Visibility 10 miles    
Events      
T = Trace of Precipitation, MM = Missing Value Source: NWS Daily Summary

Daily Weather History Graph

Daily Weather History Graph

Search for Another Location

Airport:

Trip Planner

Search our weather history database for the weather conditions in past years. The results will help you decide how hot, cold, wet, or windy it might be!

Date:

Astronomy

Oct. 20, 2012 Rise Set
Actual Time 7:33 AM MDT 6:18 PM MDT
Civil Twilight 7:03 AM MDT 6:48 PM MDT
Nautical Twilight 6:30 AM MDT 7:21 PM MDT
Astronomical Twilight 5:57 AM MDT 7:55 PM MDT
Moon 1:17 PM MDT (10/20) 11:02 PM MDT (10/20)
Length of Visible Light 11h 44m
Length of Day
10h 45m
Waxing Crescent, 35% of the Moon is Illuminated
Oct 20
Waxing Crescent
Oct 21
First Quarter
Oct 29
Full
Nov 6
Last Quarter
Nov 13
New

Hourly Weather History & Observations

Time (MDT) Temp. Windchill Dew Point Humidity Pressure Visibility Wind Dir Wind Speed Gust Speed Precip Events Conditions
12:53 AM 39.9 °F 36.7 °F 19.9 °F 45% 29.75 in 10.0 mi SSE 4.6 mph - N/A   Clear
1:53 AM 37.9 °F - 21.0 °F 51% 29.73 in 10.0 mi Calm Calm - N/A   Clear
2:53 AM 37.0 °F - 21.0 °F 52% 29.72 in 10.0 mi Calm Calm - N/A   Clear
3:53 AM 39.0 °F 35.7 °F 21.9 °F 50% 29.69 in 10.0 mi WSW 4.6 mph - N/A   Overcast
4:53 AM 37.0 °F 32.4 °F 21.9 °F 54% 29.69 in 10.0 mi SW 5.8 mph - N/A   Clear
5:53 AM 37.0 °F 31.6 °F 21.0 °F 52% 29.67 in 10.0 mi South 6.9 mph - N/A   Clear
6:53 AM 34.0 °F 31.0 °F 21.0 °F 59% 29.68 in 10.0 mi SE 3.5 mph - N/A   Clear
7:53 AM 35.1 °F - 23.0 °F 61% 29.67 in 10.0 mi Calm Calm - N/A   Clear
8:53 AM 39.0 °F - 25.0 °F 57% 29.65 in 10.0 mi Calm Calm - N/A   Clear
9:53 AM 50.0 °F - 28.0 °F 43% 29.61 in 10.0 mi East 3.5 mph - N/A   Clear
10:53 AM 62.1 °F - 32.0 °F 32% 29.57 in 10.0 mi NNE 3.5 mph - N/A   Clear
11:53 AM 73.0 °F - 24.1 °F 16% 29.52 in 10.0 mi SW 20.7 mph - N/A   Clear
12:53 PM 75.9 °F - 26.1 °F 16% 29.49 in 7.0 mi SW 32.2 mph 43.7 mph N/A   Partly Cloudy
1:53 PM 75.9 °F - 25.0 °F 15% 29.48 in 10.0 mi WSW 24.2 mph 34.5 mph N/A   Mostly Cloudy
2:53 PM 75.9 °F - 27.0 °F 16% 29.46 in 10.0 mi SW 29.9 mph 39.1 mph N/A   Scattered Clouds
3:53 PM 72.0 °F - 27.0 °F 19% 29.49 in 10.0 mi WSW 21.9 mph 35.7 mph N/A   Clear
4:53 PM 72.0 °F - 26.1 °F 18% 29.50 in 10.0 mi WSW 25.3 mph 33.4 mph N/A   Clear
5:53 PM 69.1 °F - 27.0 °F 21% 29.53 in 10.0 mi WSW 21.9 mph 26.5 mph N/A   Clear
6:53 PM 61.0 °F - 30.0 °F 31% 29.60 in 10.0 mi WNW 3.5 mph - N/A   Clear
7:53 PM 59.0 °F - 27.0 °F 29% 29.62 in 10.0 mi West 4.6 mph - N/A   Clear
8:53 PM 53.1 °F - 25.0 °F 34% 29.64 in 10.0 mi East 5.8 mph - N/A   Clear
9:53 PM 54.0 °F - 25.0 °F 33% 29.63 in 10.0 mi Variable 3.5 mph - N/A   Scattered Clouds
10:53 PM 52.0 °F - 28.9 °F 41% 29.63 in 10.0 mi North 3.5 mph - N/A   Overcast
11:53 PM 48.9 °F - 30.9 °F 50% 29.62 in 10.0 mi NW 4.6 mph - N/A   Mostly Cloudy